Regional Weather Roundup
Issued by NWS State College, PA

Home | Current Version | Previous Version | Graphics & Text | Print | Product List | Glossary Off
Versions: 1 2 3 4 5 6 7 8 9 10 11 12 13 14 15 16 17 18 19 20 21 22 23 24 25 26 27 28 29 30 31 32 33 34 35 36 37 38 39 40 41 42 43 44 45 46 47 48 49 50

000
ASUS41 KCTP 300003
RWRCTP

REGIONAL WEATHER ROUNDUP
NATIONAL WEATHER SERVICE STATE COLLEGE PA
800 PM EDT WED OCT 29 2014

Note: "fair" indicates few or no clouds below 12,000 feet with no
significant weather and/or obstructions to visibility.

* = STATION THAT DOES NOT REPORT PRECIPITATION /E.G. RAIN...SNOW...ETC/
    THUNDER OR FOG.

PAZ002>004-007>009-013>016-020>023-029>032-300100-
WESTERN PENNSYLVANIA

CITY           SKY/WX    TMP DP  RH WIND       PRES   REMARKS
ERIE           CLOUDY    47  42  83 SW8       30.00R
MEADVILLE      CLOUDY    45  38  76 W10G18    30.01R
FRANKLIN*      CLOUDY    46  34  61 SW7       30.01R
NEW CASTLE       N/A     48  33  56 W5        30.04R
BEAVER COUNTY  CLOUDY    48  32  53 W9        30.03R
BUTLER*        CLOUDY    48  30  49 W9        30.04R
PITTSBURGH INT PTCLDY    49  35  58 NW14      30.02R
PITTSBURGH     MOCLDY    53  32  44 NW15      29.99R
INDIANA*       CLOUDY    52  36  54 NW5       30.02R
LATROBE        MOCLDY    54  37  54 W9        30.01R
WASHINGTON CO* CLOUDY    52  34  50 W7        30.03R
$$

PAZ004>006-010>012-017>019-024>028-033>037-041-042-045-046-049>053-300100-
CENTRAL PENNSYLVANIA

CITY           SKY/WX    TMP DP  RH WIND       PRES   REMARKS
BRADFORD       CLOUDY    46  36  68 W9        29.96R
DUBOIS         CLOUDY    49  35  58 W10       29.97R
CLEARFIELD     CLOUDY    50  34  54 W3        29.97R
JOHNSTOWN      CLOUDY    49  33  54 W12G18    29.97R
ALTOONA        CLOUDY    52  37  56 W6        29.98R
STATE COLLEGE  NOT AVBL
WILLIAMSPORT   CLOUDY    48  37  65 CALM      29.94R
SELINSGROVE    CLOUDY    47  44  90 CALM      29.97R
FT INDIANTOWN  PTCLDY    48  48 100 VRB1      29.97R FOG
CAPITAL CITY   FOG       49  48  97 CALM      29.97S VSB 1/4
HARRISBURG     FAIR      51  49  92 CALM      29.96R
YORK           FOG       46  45  96 CALM      29.97R VSB 1/2
$$

PAZ038>040-043-044-047-048-054-055-060>062-067>071-300100-
EASTERN PENNSYLVANIA

CITY           SKY/WX    TMP DP  RH WIND       PRES   REMARKS
SCRANTON       PTCLDY    50  46  86 SW5       29.94R
MOUNT POCONO   MOCLDY    45  43  93 W5        29.93R FOG
ALLENTOWN      CLOUDY    50  47  89 W5        29.96R
QUAKERTOWN*    CLOUDY    50  48  93 W3        29.97R
READING        FOG       50  48  93 CALM      29.96R VSB 1
LANCASTER      FOG       49  48  97 W3        29.97R VSB 1
COATESVILLE    CLOUDY    50  50 100 W3        29.97R FOG
POTTSTOWN      FOG       49  47  93 CALM      29.97R VSB 3/4
BLUE BELL      CLOUDY    52  50  93 CALM      29.95R
DOYLESTOWN     CLOUDY    49  49 100 SW3       29.95R
WILLOW GROVE   NOT AVBL
NORTH PHILA    CLOUDY    54  47  77 W5        29.97R
PHILADELPHIA   CLOUDY    54  48  80 W7        29.97R
$$



USA.gov is the U.S. government's official web portal to all federal, state and local government web resources and services.